Weather Roundup
Issued by NWS

Home | Current Version | Previous Version | Text Only | Print | Product List | Glossary On
Versions: 1 2 3 4 5 6 7 8 9 10 11 12 13 14 15 16 17 18 19 20 21 22 23 24 25 26 27 28 29 30 31 32 33 34 35 36 37 38 39 40 41 42 43 44 45 46 47 48 49 50
514
NZUS93 KARX 260659
HRRWXR

CURRENT HOURLY OBSERVATIONS ACROSS
MUCH OF THE UPPER MISSISSIPPI VALLEY
NATIONAL WEATHER SERVICE LA CROSSE WI
200 AM CDT MON SEP 26 2016


...SOUTHEAST MINNESOTA...


CITY           SKY/WX    TMP DP  RH WIND       PRES   REMARKS
ROCHESTER      CLEAR     51  43  74 W10       30.00F
ROCHESTER/MAYO FAIR      52  43  72 W13       29.99F
WINONA         CLEAR     55  46  71 W5        29.97S
AUSTIN         CLEAR     52  41  66 W9        30.02S
ALBERT LEA     CLEAR     52  43  71 W7        30.03F
DODGE CENTER   CLEAR     48  43  81 W9        30.00F
PRESTON        CLEAR     50  42  74 W12       30.01S
OWATONNA       CLEAR     52  41  66 W8        30.01S
FARIBAULT      PTCLDY    54  43  66 W9G16     30.01S
$$

...ELSEWHERE IN MINNESOTA...


CITY           SKY/WX    TMP DP  RH WIND       PRES   REMARKS
MINNEAPOLIS    MOCLDY    55  43  63 W14       29.96F
INTNL FALLS    LGT RAIN  51  48  89 W16G23    29.66S
DULUTH         LGT RAIN  50  48  93 W21       29.73F FOG
RED WING       MOCLDY    55  45  67 W8        29.95F
REDWOOD FALLS  CLEAR     53  38  56 W16       30.03F
MANKATO        CLEAR     53  40  61 W14G21    30.02F
WORTHINGTON    CLEAR     47  39  74 W12       30.12F
FAIRMONT       CLEAR     51  40  65 W12       30.08S
$$

...SOUTHWEST WISCONSIN...


CITY           SKY/WX    TMP DP  RH WIND       PRES   REMARKS
LA CROSSE      CLEAR     58  48  69 W14       29.96F
PRAIRIE DU CHI CLOUDY    56  49  75 W12       30.01S
BOSCOBEL       CLOUDY    57  50  77 SW6       30.00S
LONE ROCK      NOT AVBL
PLATTEVILLE    CLOUDY    57  52  84 W10       30.02R
FORT MC COY    CLEAR     54  49  85 W5        29.96S
MAUSTON-NEW LI MOSUNNY   56  49  76 W6        29.94S
VIROQUA        FAIR      53  50  90 W8        29.98S
WIS DELLS      NOT AVBL
$$

...ELSEWHERE IN WISCONSIN...


CITY           SKY/WX    TMP DP  RH WIND       PRES   REMARKS
MILWAUKEE      CLOUDY    63  53  70 W15G24    29.92R
MADISON        CLOUDY    59  49  69 VRB7      29.96R
GREEN BAY      CLOUDY    59  55  87 W10       29.84S
EAU CLAIRE     NOT AVBL
BLACK RVR FLS  FAIR      52  46  80 SW5       29.93F
MEDFORD        PTCLDY    49  46  90 W8        29.86S
WAUSAU         CLOUDY    52  44  74 W20G25    29.84S
WIS RAPIDS     CLOUDY    54  46  74 W13G21    29.92S
MARSHFIELD     CLEAR     52  42  69 W14G21    29.88F
RICE LAKE      NOT AVBL
$$

...NORTHEAST IOWA...


CITY           SKY/WX    TMP DP  RH WIND       PRES   REMARKS
WATERLOO       CLEAR     54  46  74 W7        30.06S
DUBUQUE        CLOUDY    57  50  77 W13       30.03F
DECORAH        CLEAR     52  48  87 VRB7      30.01S
MASON CITY     CLEAR     50  43  77 W13       30.08F
CHARLES CITY   CLEAR     52  46  82 W8        30.06S
OELWEIN        CLEAR     52  48  87 W8        30.06F
$$

...ELSEWHERE IN IOWA...


CITY           SKY/WX    TMP DP  RH WIND       PRES   REMARKS
DES MOINES     CLEAR     55  44  66 NW8       30.14S
IOWA CITY      CLOUDY    59  50  72 W9        30.09S
FORT DODGE     CLEAR     50  41  71 W7        30.13S
MARSHALLTOWN   CLEAR     50  47  89 W6        30.10S
CEDAR RAPIDS   CLOUDY    56  50  80 W13       30.07S
$$

...NORTHERN ILLINOIS...


CITY           SKY/WX    TMP DP  RH WIND       PRES   REMARKS
CHICAGO-OHARE  CLOUDY    62  54  74 W15       29.96S
CHICAGO-MIDWAY LGT RAIN  64  54  69 W15       29.97R
MOLINE         CLOUDY    61  51  70 W9        30.05F
ROCKFORD       CLOUDY    61  51  70 W14G23    30.01S
PEORIA         CLOUDY    62  54  74 NW6       30.06F
$$

NOTE: "FAIR" INDICATES FEW OR NO CLOUDS BELOW 12,000 FEET WITH NO
SIGNIFICANT WEATHER AND/OR OBSTRUCTIONS TO VISIBILITY. WIND
SPEEDS ARE IN MILES-PER-HOUR.




USA.gov is the U.S. government's official web portal to all federal, state and local government web resources and services.